Eastover, SC

11:26 PM EDT on September 22, 2017 (GMT -0400)
McEntire Angs

Weather History for KMMT - October, 2012

Change the Weather History Date:

Sunday, October 7, 2012

  Actual Average Record
Temperature  
Mean Temperature 70 °F -  
Max Temperature 82 °F 75 °F 87 °F (1997)
Min Temperature 58 °F 55 °F 43 °F (2010)
Cooling Degree Days 4    
Growing Degree Days 20 (Base 50)    
Moisture  
Dew Point 60 °F    
Average Humidity 91    
Maximum Humidity 100    
Minimum Humidity 57    
Precipitation  
Precipitation 0.00 in - - ()
Sea Level Pressure  
Sea Level Pressure 29.98 in    
Wind  
Wind Speed 2 mph (North)    
Max Wind Speed 10 mph    
Max Gust Speed -    
Visibility 5 miles    
Events Fog    
Averages and records for this station are not official NWS values.
T = Trace of Precipitation, MM = Missing Value Source: NWS Daily Summary

Daily Weather History Graph

Daily Weather History Graph

Search for Another Location

Airport or City:

Trip Planner

Search our weather history database for the weather conditions in past years. The results will help you decide how hot, cold, wet, or windy it might be!

Date:

Astronomy

Oct. 07, 2012 Rise Set
Actual Time 7:22 AM EDT 6:58 PM EDT
Civil Twilight 6:57 AM EDT 7:23 PM EDT
Nautical Twilight 6:28 AM EDT 7:52 PM EDT
Astronomical Twilight 5:59 AM EDT 8:21 PM EDT
Moon No Moon Rise 1:47 PM EDT (10/7)
Length of Visible Light 12h 26m
Length of Day
11h 36m
Waning Gibbous, 56% of the Moon is Illuminated
Oct 7
Waning Gibbous
Oct 8
Last Quarter
Oct 15
New
Oct 21
First Quarter
Oct 29
Full

Hourly Weather History & Observations

Time (EDT) Temp. Heat Index Dew Point Humidity Pressure Visibility Wind Dir Wind Speed Gust Speed Precip Events Conditions
12:55 AM 63.1 °F - 61.9 °F 96% 29.95 in 10.0 mi Calm Calm - N/A   Clear
1:55 AM 62.6 °F - 61.3 °F 96% 29.95 in 10.0 mi Calm Calm - N/A   Clear
2:55 AM 62.2 °F - 61.5 °F 97% 29.94 in 10.0 mi Calm Calm - N/A   Clear
3:55 AM 61.5 °F - 60.6 °F 97% 29.94 in 8.0 mi Calm Calm - N/A   Clear
4:55 AM 61.2 °F - 60.8 °F 99% 29.94 in 4.0 mi Calm Calm - N/A   Clear
5:55 AM 60.6 °F - 60.4 °F 99% 29.95 in 6.0 mi Calm Calm - N/A   Clear
6:01 AM 60.8 °F - 60.8 °F 100% 29.95 in 2.0 mi Calm Calm - N/A   Clear
6:02 AM 60.8 °F - 60.8 °F 100% 29.95 in 1.5 mi Calm Calm - N/A   Clear
6:03 AM 60.8 °F - 59.0 °F 94% 29.95 in 1.2 mi Calm Calm - N/A   Clear
6:06 AM 60.8 °F - 60.8 °F 100% 29.96 in 1.0 mi Calm Calm - N/A   Clear
6:09 AM 60.8 °F - 60.8 °F 100% 29.96 in 0.8 mi WNW 3.5 mph - N/A   Clear
6:10 AM 60.8 °F - 60.8 °F 100% 29.96 in 1.0 mi WNW 3.5 mph - N/A   Clear
6:13 AM 60.8 °F - 60.8 °F 100% 29.96 in 1.2 mi NW 3.5 mph - N/A   Clear
6:14 AM 60.8 °F - 60.8 °F 100% 29.96 in 1.0 mi NW 3.5 mph - N/A   Clear
6:15 AM 60.8 °F - 60.8 °F 100% 29.96 in 1.0 mi NW 3.5 mph - N/A   Clear
6:16 AM 60.8 °F - 59.0 °F 94% 29.96 in 0.8 mi NW 4.6 mph - N/A   Clear
6:24 AM 59.0 °F - 59.0 °F 100% 29.96 in 0.8 mi NW 5.8 mph - N/A   Mist
6:25 AM 59.0 °F - 59.0 °F 100% 29.96 in 1.0 mi NNW 4.6 mph - N/A   Mist
6:27 AM 59.0 °F - 59.0 °F 100% 29.96 in 1.5 mi NNW 3.5 mph - N/A   Partly Cloudy
6:28 AM 59.0 °F - 59.0 °F 100% 29.96 in 1.8 mi NW 3.5 mph - N/A   Partly Cloudy
6:29 AM 59.0 °F - 59.0 °F 100% 29.96 in 2.5 mi Calm Calm - N/A   Partly Cloudy
6:30 AM 59.0 °F - 59.0 °F 100% 29.96 in 3.0 mi NNW 3.5 mph - N/A   Partly Cloudy
6:36 AM 59.0 °F - 59.0 °F 100% 29.96 in 2.5 mi Calm Calm - N/A   Clear
6:45 AM 59.0 °F - 59.0 °F 100% 29.96 in 4.0 mi Calm Calm - N/A   Clear
6:52 AM 60.8 °F - 60.8 °F 100% 29.97 in 2.5 mi Calm Calm - N/A   Clear
6:54 AM 60.8 °F - 60.8 °F 100% 29.97 in 1.5 mi Calm Calm - N/A   Clear
6:55 AM 60.3 °F - 60.3 °F 100% 29.97 in 1.5 mi Calm Calm - N/A   Clear
6:56 AM 60.8 °F - 60.8 °F 100% 29.97 in 1.2 mi Calm Calm - N/A   Clear
6:58 AM 60.8 °F - 60.8 °F 100% 29.97 in 1.0 mi Calm Calm - N/A   Clear
7:00 AM 60.8 °F - 60.8 °F 100% 29.97 in 0.8 mi Calm Calm - N/A   Clear
7:04 AM 60.8 °F - 60.8 °F 100% 29.97 in 1.0 mi Calm Calm - N/A   Clear
7:08 AM 59.0 °F - 59.0 °F 100% 29.97 in 1.2 mi Calm Calm - N/A   Clear
7:09 AM 59.0 °F - 59.0 °F 100% 29.97 in 1.5 mi Calm Calm - N/A   Clear
7:11 AM 59.0 °F - 59.0 °F 100% 29.97 in 1.2 mi Calm Calm - N/A   Clear
7:12 AM 60.8 °F - 60.8 °F 100% 29.97 in 1.0 mi Calm Calm - N/A   Clear
7:13 AM 60.8 °F - 60.8 °F 100% 29.97 in 0.5 mi Calm Calm - N/A Fog Fog
7:14 AM 60.8 °F - 60.8 °F 100% 29.97 in 0.5 mi Calm Calm - N/A Fog Fog
7:16 AM 59.0 °F - 59.0 °F 100% 29.97 in 0.2 mi Calm Calm - N/A Fog Fog
7:28 AM 59.0 °F - 59.0 °F 100% 29.98 in 0.2 mi Calm Calm - N/A Fog Fog
7:29 AM 59.0 °F - 59.0 °F 100% 29.98 in 0.2 mi Calm Calm - N/A Fog Fog
7:30 AM 59.0 °F - 59.0 °F 100% 29.98 in 0.2 mi Calm Calm - N/A Fog Fog
7:33 AM 59.0 °F - 59.0 °F 100% 29.98 in 0.5 mi Calm Calm - N/A Fog Fog
7:35 AM 59.0 °F - 59.0 °F 100% 29.98 in 0.8 mi Calm Calm - N/A   Clear
7:36 AM 59.0 °F - 59.0 °F 100% 29.98 in 1.0 mi Calm Calm - N/A   Clear
7:37 AM 60.8 °F - 60.8 °F 100% 29.98 in 1.8 mi Calm Calm - N/A   Clear
7:38 AM 60.8 °F - 60.8 °F 100% 29.98 in 3.0 mi Calm Calm - N/A   Clear
7:55 AM 59.5 °F - 59.5 °F 100% 29.98 in 6.0 mi Calm Calm - N/A   Clear
8:55 AM 66.0 °F - 64.9 °F 96% 30.00 in 10.0 mi North 6.9 mph - N/A   Clear
9:55 AM 68.5 °F - 61.3 °F 78% 30.01 in 10.0 mi Variable 5.8 mph - N/A   Clear
10:55 AM 70.5 °F - 60.4 °F 70% 30.02 in 10.0 mi Variable 4.6 mph - N/A   Clear
11:55 AM 73.4 °F - 61.3 °F 66% 30.00 in 10.0 mi Calm Calm - N/A   Clear
12:55 PM 79.0 °F - 63.3 °F 59% 29.98 in 10.0 mi Variable 3.5 mph - N/A   Clear
1:55 PM 80.8 °F 82.4 °F 64.2 °F 57% 29.96 in 10.0 mi Calm Calm - N/A   Mostly Cloudy
2:55 PM 78.6 °F - 63.9 °F 60% 29.95 in 10.0 mi North 8.1 mph - N/A   Partly Cloudy
3:41 PM 78.8 °F - 64.4 °F 61% 29.95 in 10.0 mi NE 6.9 mph - N/A   Light Drizzle
3:49 PM 78.8 °F - 64.4 °F 61% 29.95 in 10.0 mi NE 5.8 mph - N/A   Clear
3:55 PM 79.5 °F - 64.4 °F 60% 29.95 in 10.0 mi NNE 5.8 mph - 0.00 in   Clear
4:55 PM 78.6 °F - 64.6 °F 62% 29.96 in 10.0 mi North 10.4 mph - N/A   Mostly Cloudy
5:55 PM 76.5 °F - 64.0 °F 65% 29.97 in 10.0 mi Variable 6.9 mph - N/A   Partly Cloudy
6:55 PM 71.1 °F - 62.6 °F 75% 30.00 in 10.0 mi NNE 5.8 mph - N/A   Clear
7:55 PM 66.7 °F - 59.5 °F 78% 30.03 in 10.0 mi NNE 10.4 mph - N/A   Clear
8:55 PM 63.1 °F - 56.8 °F 80% 30.06 in 10.0 mi NNE 9.2 mph - N/A   Scattered Clouds
9:06 PM 62.6 °F - 57.2 °F 82% 30.07 in 10.0 mi North 6.9 mph - N/A   Mostly Cloudy
9:10 PM 62.6 °F - 57.2 °F 82% 30.07 in 10.0 mi Variable 5.8 mph - N/A   Mostly Cloudy
9:55 PM 61.5 °F - 55.9 °F 82% 30.09 in 10.0 mi North 3.5 mph - N/A   Mostly Cloudy
10:43 PM 59.0 °F - 53.6 °F 82% 30.09 in 10.0 mi NNE 8.1 mph - N/A   Mostly Cloudy
10:55 PM 59.5 °F - 53.2 °F 80% 30.10 in 10.0 mi NE 6.9 mph - N/A   Mostly Cloudy
11:55 PM 58.1 °F - 51.8 °F 80% 30.11 in 10.0 mi Variable 5.8 mph - N/A   Mostly Cloudy